COSMOS 1275 DEB, 39956

Orbit data source: Space-Track

COSMOS 1275 DEB, 39956 is space debris in LEO originally from a launch on Thu, 04 Jun 1981 UTC launched from the Plesetsk Missile And Space Complex (PKMTR). Debris objects in space refer to the collection of defunct objects orbiting the Earth. Examples of debris include non-operational satellites, rocket bodies, and fragments generated from explosions, collisions, or faulty payload assembly.

Loading next visibility...
Identifier
39956, 1981-053NS
Orbit
LEO
Country
Flag of CISCIS
Related business
Manufacturer
Unknown
Mission
Spacecraft
Bus & Motor
Unknown
Mass
Unknown
Launch date (UTC)
1981-06-04 (45 years ago)
Launch vehicle
Unknown
Launch site
Plesetsk Missile And Space Complex (PKMTR)
Object type
Payload
Rocket body
Debris
Shape & HBR
Unknown shape, 0.1 m
Radar Cross Section
Medium (>0.1 m² and <1 m²)

Expand to show TLE details & history
Last TLE update: 3 days ago

TLE from 3 days ago
0 COSMOS 1275 DEB
1 39956U 81053NS  26170.70369335  .00001234  00000-0  11831-2 0  9997
2 39956  83.0163 271.0754 0116587 284.2532  74.5699 13.76685261602659
Epoch: 2026-06-19T16:53Z
TLE epoch observation values (Epoch: 2026-06-19T16:53:19.105Z)
Latitude
-0.00008°
Longitude
109.81693°
Altitude
956.689 km
Speed
7.384 km/s
True Right ascension
18h 04m 18s
True Declination
0° 00' 00"
Sunlit
Object was in full shadow at epoch
Visualization orbit readout
Latitude
Unknown
Longitude
Unknown
Altitude
Unknown
Speed
Unknown
Apparent Right ascension
Unknown
Apparent Declination
Unknown
Sunlit
N/A
Visualization observer readout
Local Sidereal Time
19:09:22
Azimuth
Unknown
Elevation
Unknown
Doppler factor
Unknown
Orbital elements
Apogee altitude
1,058.513 km
Perigee altitude
887.108 km
Semi-major axis
7,350.947 km
Eccentricity
0.01166
Inclination
83.0163°
RAAN
271.0754°
Arg. of periapsis
284.2532°
True anomaly
75.86264°
Mean anomaly
74.5699°
Eccentric anomaly
75.21578°
Mean motion
3.44372 °/min
Orbital period
104.54 mins
BSTAR
0.0011831
Loading maneuver chart data...
Computing Atmospheric mass density...

Documentation

Showing up to 5 results
|